Simultaneous Nadir Overpasses (SNOs) Predictions

Prediction of SNOs between LANDSAT-8 and METOP-B Satellite Orbit:

Table of predicted SNOs for the next 14.0 days since TLE Epoch: 3/18/2023
Index Date (LANDSAT-8) Time (LANDSAT-8) Lat,Lon (LANDSAT-8) SZA (LANDSAT-8 ) Date (METOP-B) Time (METOP-B) Lat,Lon (METOP-B) SZA (METOP-B ) Distance(km) Time Diff (sec)
1 03/20/2023 20:05:18 81.13, -81.76 82.97 03/20/2023 20:04:35 81.13, -81.65 82.97 1.99 43
2 03/20/2023 20:54:44 -81.15, 86.16 97.01 03/20/2023 20:55:15 -81.14, 86.05 97.01 1.94 31
3 03/23/2023 15:39:30 81.13, -15.36 81.88 03/23/2023 15:38:55 81.12, -15.39 81.86 0.63 35
4 03/23/2023 16:28:56 -81.15, 152.58 98.10 03/23/2023 16:29:34 -81.15, 152.69 98.07 1.92 38
5 03/26/2023 11:13:40 81.13, 51.13 80.80 03/26/2023 11:13:13 81.13, 51.14 80.79 0.28 27
6 03/26/2023 12:03:06 -81.15,-140.90 99.17 03/26/2023 12:03:52 -81.15,-140.76 99.13 2.45 46
7 03/29/2023 06:47:51 81.11, 117.34 79.69 03/29/2023 06:47:33 81.12, 117.20 79.67 2.47 18
8 03/29/2023 07:37:16 -81.16, -74.30 100.22 03/29/2023 07:38:11 -81.16, -74.32 100.21 0.68 55
9 04/01/2023 02:22:00 81.13,-175.99 78.65 04/01/2023 02:21:51 81.13,-176.09 78.64 1.69 9



Historial Predications of SNOs between LANDSAT-8 and METOP-B
